TimeCDT,TemperatureF,Dew PointF,Humidity,Sea Level PressureIn,VisibilityMPH,Wind Direction,Wind SpeedMPH,Gust SpeedMPH,PrecipitationIn,Events,Conditions,WindDirDegrees,DateUTC
12:53 AM,27.0,23.0,85,30.43,10.0,Calm,Calm,-,N/A,,Clear,0,2013-03-14 05:53:00
1:53 AM,25.0,21.9,88,30.43,10.0,Calm,Calm,-,N/A,,Clear,0,2013-03-14 06:53:00
2:53 AM,24.1,21.9,91,30.43,10.0,SSW,3.5,-,N/A,,Clear,200,2013-03-14 07:53:00
3:53 AM,24.1,21.9,91,30.42,10.0,Calm,Calm,-,N/A,,Clear,0,2013-03-14 08:53:00
4:53 AM,25.0,21.9,88,30.43,10.0,Calm,Calm,-,N/A,,Clear,0,2013-03-14 09:53:00
5:53 AM,30.0,19.9,66,30.42,10.0,ESE,3.5,-,N/A,,Clear,120,2013-03-14 10:53:00
6:53 AM,27.0,21.0,78,30.43,10.0,ESE,3.5,-,N/A,,Clear,110,2013-03-14 11:53:00
7:53 AM,30.0,24.1,79,30.45,10.0,SW,3.5,-,N/A,,Clear,230,2013-03-14 12:53:00
8:53 AM,35.1,23.0,61,30.44,10.0,SSE,3.5,-,N/A,,Clear,160,2013-03-14 13:53:00
9:53 AM,39.9,23.0,51,30.45,10.0,South,5.8,-,N/A,,Clear,170,2013-03-14 14:53:00
10:53 AM,44.1,23.0,43,30.42,10.0,Variable,3.5,-,N/A,,Partly Cloudy,0,2013-03-14 15:53:00
12:53 PM,51.1,21.0,31,30.37,10.0,SW,4.6,-,N/A,,Clear,230,2013-03-14 17:53:00
1:53 PM,54.0,24.1,31,30.34,10.0,WSW,6.9,-,N/A,,Mostly Cloudy,240,2013-03-14 18:53:00
2:53 PM,54.0,24.1,31,30.30,10.0,SSW,4.6,-,N/A,,Mostly Cloudy,200,2013-03-14 19:53:00
3:53 PM,55.0,24.1,30,30.27,10.0,SSW,4.6,-,N/A,,Overcast,200,2013-03-14 20:53:00
4:53 PM,55.9,26.1,32,30.24,10.0,SSW,5.8,-,N/A,,Overcast,200,2013-03-14 21:53:00
5:53 PM,55.9,26.1,32,30.22,10.0,SSE,3.5,-,N/A,,Overcast,160,2013-03-14 22:53:00
6:53 PM,55.0,27.0,34,30.21,10.0,Calm,Calm,-,N/A,,Overcast,0,2013-03-14 23:53:00
7:53 PM,48.9,33.1,54,30.21,10.0,Calm,Calm,-,N/A,,Partly Cloudy,0,2013-03-15 00:53:00
8:53 PM,46.9,28.9,50,30.23,10.0,Calm,Calm,-,N/A,,Scattered Clouds,0,2013-03-15 01:53:00
9:53 PM,42.1,30.0,62,30.21,10.0,SSE,4.6,-,N/A,,Clear,160,2013-03-15 02:53:00
10:53 PM,39.0,30.9,73,30.19,10.0,SSE,3.5,-,N/A,,Clear,160,2013-03-15 03:53:00
11:53 PM,41.0,30.9,67,30.18,10.0,South,4.6,-,N/A,,Clear,170,2013-03-15 04:53:00